Tracy, MN

8:22 AM CST on February 23, 2017 (GMT -0600)
Tracy

Weather History for KTKC - February, 2013

Change the Weather History Date:

Saturday, February 2, 2013

  Actual Average (KMML) Record (KMML)
Temperature  
Mean Temperature 16 °F -  
Max Temperature 30 °F 22 °F 59 °F (1991)
Min Temperature 2 °F 1 °F -20 °F (1978)
Degree Days  
Heating Degree Days 49    
Moisture  
Dew Point 8 °F    
Average Humidity 82    
Maximum Humidity 89    
Minimum Humidity 74    
Precipitation  
Precipitation 0.00 in - - ()
Sea Level Pressure  
Sea Level Pressure 30.04 in    
Wind  
Wind Speed 10 mph (NW)    
Max Wind Speed 26 mph    
Max Gust Speed 38 mph    
Visibility 7 miles    
Events Snow    
Averages and records for this station are not official NWS values.
T = Trace of Precipitation, MM = Missing Value Source: NWS Daily Summary

Daily Weather History Graph

Daily Weather History Graph

Search for Another Location

Airport or City:

Trip Planner

Search our weather history database for the weather conditions in past years. The results will help you decide how hot, cold, wet, or windy it might be!

Date:

Astronomy

Feb. 02, 2013 Rise Set
Actual Time 7:38 AM CST 5:34 PM CST
Civil Twilight 7:08 AM CST 6:04 PM CST
Nautical Twilight 6:33 AM CST 6:39 PM CST
Astronomical Twilight 5:59 AM CST 7:13 PM CST
Moon No Moon Rise 10:32 AM CST (2/2)
Length of Visible Light 10h 56m
Length of Day
9h 55m
Waning Gibbous, 59% of the Moon is Illuminated
Feb 2
Waning Gibbous
Feb 3
Last Quarter
Feb 10
New
Feb 17
First Quarter
Feb 25
Full

Hourly Weather History & Observations

Time (CST) Temp. Windchill Dew Point Humidity Pressure Visibility Wind Dir Wind Speed Gust Speed Precip Events Conditions
12:17 AM 13.1 °F -2.6 °F 7.5 °F 78% 30.03 in 10.0 mi NNW 15.0 mph - N/A Snow Light Snow
12:38 AM 12.4 °F -2.3 °F 7.3 °F 80% 30.04 in 10.0 mi NNW 12.7 mph 19.6 mph N/A   Overcast
12:58 AM 11.8 °F -4.8 °F 6.4 °F 79% 30.05 in 10.0 mi NNW 16.1 mph 20.7 mph N/A Snow Light Snow
1:18 AM 10.6 °F -5.2 °F 5.5 °F 80% 30.06 in 10.0 mi NNW 13.8 mph - N/A   Scattered Clouds
1:37 AM 9.9 °F -6.1 °F 4.8 °F 80% 30.06 in 10.0 mi NNW 13.8 mph 18.4 mph N/A   Clear
1:57 AM 9.0 °F -6.6 °F 4.3 °F 81% 30.07 in 10.0 mi NNW 12.7 mph - N/A   Clear
2:18 AM 8.2 °F -6.0 °F 3.7 °F 82% 30.07 in 10.0 mi NNW 10.4 mph - N/A   Clear
2:38 AM 7.7 °F -6.6 °F 3.2 °F 82% 30.08 in 10.0 mi NNW 10.4 mph - N/A   Clear
2:58 AM 7.2 °F -8.1 °F 2.8 °F 82% 30.08 in 10.0 mi NNW 11.5 mph - N/A   Clear
3:18 AM 6.6 °F -8.0 °F 2.3 °F 82% 30.08 in 10.0 mi NW 10.4 mph - N/A   Clear
3:38 AM 6.3 °F -8.4 °F 2.3 °F 84% 30.08 in 10.0 mi NNW 10.4 mph - N/A   Clear
3:58 AM 5.7 °F -7.2 °F 1.9 °F 84% 30.09 in 10.0 mi NNW 8.1 mph - N/A   Clear
4:18 AM 5.0 °F -9.1 °F 1.4 °F 85% 30.10 in 10.0 mi NNW 9.2 mph - N/A   Clear
4:38 AM 4.8 °F -9.3 °F 0.9 °F 84% 30.11 in 10.0 mi NNW 9.2 mph - N/A   Clear
4:57 AM 4.3 °F -10.0 °F 0.5 °F 84% 30.11 in 10.0 mi NNW 9.2 mph - N/A   Clear
5:18 AM 3.7 °F -8.4 °F -0.0 °F 84% 30.12 in 10.0 mi NNW 6.9 mph - N/A   Scattered Clouds
5:38 AM 3.7 °F -9.6 °F -0.4 °F 83% 30.13 in 10.0 mi NNW 8.1 mph - N/A   Overcast
5:58 AM 3.4 °F -10.0 °F -0.6 °F 84% 30.13 in 10.0 mi NNW 8.1 mph - N/A   Overcast
6:18 AM 3.2 °F -9.1 °F -0.8 °F 84% 30.14 in 10.0 mi NNW 6.9 mph - N/A   Overcast
6:38 AM 3.2 °F -10.3 °F -0.8 °F 84% 30.14 in 10.0 mi NNW 8.1 mph - N/A   Overcast
6:57 AM 3.0 °F -6.4 °F -0.9 °F 84% 30.13 in 10.0 mi NNW 4.6 mph - N/A   Overcast
7:17 AM 3.0 °F - -0.9 °F 84% 30.13 in 10.0 mi Calm Calm - N/A Snow Light Snow
7:38 AM 2.8 °F - -1.3 °F 83% 30.13 in 7.0 mi Calm Calm - N/A Snow Light Snow
7:58 AM 2.7 °F - -1.3 °F 84% 30.13 in 7.0 mi Calm Calm - N/A   Mostly Cloudy
8:18 AM 2.3 °F - -1.5 °F 84% 30.13 in 10.0 mi Calm Calm - N/A   Scattered Clouds
8:38 AM 2.3 °F - -1.5 °F 84% 30.14 in 7.0 mi Calm Calm - N/A   Clear
8:58 AM 3.2 °F - -0.8 °F 84% 30.14 in 10.0 mi Calm Calm - N/A   Mostly Cloudy
9:18 AM 3.2 °F - -0.9 °F 83% 30.14 in 4.0 mi Calm Calm - N/A Snow Light Snow
9:38 AM 4.1 °F - -0.4 °F 82% 30.14 in 4.0 mi Calm Calm - N/A Snow Light Snow
9:58 AM 4.3 °F - -0.6 °F 80% 30.13 in 7.0 mi Calm Calm - N/A   Overcast
10:18 AM 5.4 °F - 0.1 °F 79% 30.12 in 4.0 mi Calm Calm - N/A   Haze
10:37 AM 7.0 °F - 1.2 °F 77% 30.13 in 10.0 mi Calm Calm - N/A   Mostly Cloudy
10:57 AM 7.7 °F - 1.2 °F 75% 30.13 in 10.0 mi Calm Calm - N/A   Mostly Cloudy
11:17 AM 8.2 °F - 1.8 °F 75% 30.13 in 7.0 mi Calm Calm - N/A   Mostly Cloudy
11:37 AM 9.0 °F - 2.1 °F 74% 30.13 in 5.0 mi Calm Calm - N/A Snow Light Snow
11:58 AM 9.5 °F - 2.8 °F 74% 30.11 in 3.0 mi Calm Calm - N/A Snow Light Snow
12:18 PM 10.6 °F - 4.1 °F 75% 30.10 in 3.0 mi Calm Calm - N/A Snow Light Snow
12:38 PM 11.3 °F - 5.0 °F 76% 30.09 in 4.0 mi Calm Calm - N/A Snow Light Snow
12:58 PM 13.1 °F - 6.6 °F 75% 30.07 in 5.0 mi Calm Calm - N/A   Haze
1:18 PM 13.8 °F - 7.5 °F 76% 30.06 in 10.0 mi Calm Calm - N/A   Mostly Cloudy
1:38 PM 14.7 °F - 8.8 °F 77% 30.03 in 10.0 mi Calm Calm - N/A   Overcast
1:57 PM 15.8 °F - 9.9 °F 77% 30.02 in 10.0 mi Calm Calm - N/A   Overcast
2:17 PM 16.5 °F - 10.6 °F 77% 30.01 in 10.0 mi Calm Calm - N/A   Overcast
2:38 PM 17.6 °F - 11.5 °F 77% 30.01 in 10.0 mi Calm Calm - N/A   Overcast
2:57 PM 18.1 °F - 12.2 °F 78% 30.00 in 7.0 mi Calm Calm - N/A Snow Light Snow
3:17 PM 18.3 °F - 13.6 °F 82% 29.99 in 4.0 mi Calm Calm - N/A Snow Light Snow
3:37 PM 18.3 °F - 14.5 °F 85% 29.97 in 1.5 mi Calm Calm - N/A Snow Light Snow
3:57 PM 18.5 °F 8.4 °F 14.9 °F 86% 29.95 in 1.0 mi SSW 8.1 mph - N/A Snow Light Snow
4:17 PM 18.9 °F 6.5 °F 15.4 °F 87% 29.95 in 1.0 mi SSW 11.5 mph - N/A Snow Light Snow
4:37 PM 19.2 °F 5.8 °F 15.4 °F 85% 29.94 in 3.0 mi SSW 13.8 mph - N/A Snow Light Snow
4:57 PM 19.4 °F 6.0 °F 15.8 °F 86% 29.91 in 3.0 mi SSW 13.8 mph 19.6 mph N/A Snow Light Snow
5:18 PM 20.1 °F 4.2 °F 16.0 °F 84% 29.91 in 7.0 mi SSW 20.7 mph 24.2 mph N/A Snow Light Snow
5:38 PM 20.7 °F 5.7 °F 16.7 °F 85% 29.90 in 5.0 mi SW 18.4 mph - N/A Snow Light Snow
5:58 PM 21.7 °F 8.5 °F 18.3 °F 87% 29.90 in 2.5 mi SW 15.0 mph - N/A Snow Light Snow
6:17 PM 23.4 °F 10.1 °F 20.7 °F 89% 29.89 in 7.0 mi WSW 16.1 mph 20.7 mph N/A Snow Light Snow
6:38 PM 25.5 °F 15.5 °F 22.1 °F 87% 29.90 in 7.0 mi West 10.4 mph 18.4 mph N/A Snow Light Snow
6:58 PM 26.8 °F 17.7 °F 23.9 °F 89% 29.90 in 5.0 mi West 9.2 mph 19.6 mph N/A Snow Light Snow
7:18 PM 28.4 °F 18.5 °F 24.8 °F 86% 29.90 in 10.0 mi WNW 11.5 mph 19.6 mph N/A Snow Light Snow
7:38 PM 29.1 °F 17.5 °F 25.3 °F 86% 29.90 in 10.0 mi WNW 16.1 mph 21.9 mph N/A   Overcast
7:58 PM 30.0 °F 16.0 °F 25.7 °F 84% 29.92 in 7.0 mi NW 25.3 mph 32.2 mph N/A   Overcast
8:18 PM 28.0 °F 13.0 °F 23.7 °F 84% 29.94 in 1.8 mi NNW 26.5 mph 36.8 mph N/A Snow Light Snow
8:37 PM 25.7 °F 9.9 °F 21.7 °F 85% 29.95 in 3.0 mi NNW 26.5 mph 38.0 mph N/A Snow Light Snow
8:57 PM 23.5 °F 8.0 °F 19.8 °F 85% 29.96 in 4.0 mi NNW 23.0 mph 33.4 mph N/A Snow Light Snow
9:18 PM 21.0 °F 5.0 °F 17.4 °F 86% 29.98 in 4.0 mi NNW 21.9 mph 34.5 mph N/A Snow Light Snow
9:38 PM 19.8 °F 2.2 °F 16.3 °F 87% 29.99 in 4.0 mi NNW 25.3 mph 32.2 mph N/A Snow Light Snow
9:58 PM 18.9 °F 1.0 °F 15.6 °F 87% 30.00 in 5.0 mi NNW 25.3 mph 29.9 mph N/A   Overcast
10:18 PM 17.6 °F 0.9 °F 13.8 °F 85% 30.01 in 7.0 mi NNW 20.7 mph 28.8 mph N/A   Mostly Cloudy
10:37 PM 16.9 °F -0.1 °F 13.1 °F 85% 30.01 in 10.0 mi NNW 20.7 mph 27.6 mph N/A   Mostly Cloudy
10:57 PM 17.2 °F 0.8 °F 13.1 °F 84% 30.02 in 10.0 mi NW 19.6 mph 26.5 mph N/A   Overcast
11:18 PM 17.1 °F 1.5 °F 13.1 °F 84% 30.01 in 10.0 mi NNW 17.3 mph - N/A Snow Light Snow
11:57 PM 17.1 °F 1.0 °F 12.4 °F 82% 30.04 in 10.0 mi NNW 18.4 mph 26.5 mph N/A   Overcast